• In Netherlands
  • List of Countries
  • For 7 days
  • Water Temperature
  • Satellite Maps
  • Weather Map
  • Weather Widgets
  • user-avatar
    Login

    Hourly Weather Trinidad

    Today, 21 January, Sunday

    Time Temperature Precipitation Wind Pressure Humidity
    00:00 +26°C° 0 mm 1 mps 743 mmHg 90%
    01:00 +25°C° 0 mm 1 mps 743 mmHg 91%
    02:00 +25°C° 0 mm 1 mps 743 mmHg 92%
    03:00 +25°C° 0 mm 1 mps 743 mmHg 92%
    04:00 +25°C° 0 mm 1 mps 743 mmHg 92%
    05:00 +24°C° 0 mm 1 mps 743 mmHg 93%
    06:00 +25°C° 0 mm 1 mps 743 mmHg 88%
    07:00 +26°C° 0 mm 1 mps 744 mmHg 83%
    08:00 +28°C° 0 mm 1 mps 744 mmHg 79%
    09:00 +29°C° 0 mm 2 mps 744 mmHg 71%
    10:00 +31°C° 0 mm 2 mps 744 mmHg 63%
    11:00 +34°C° 0 mm 3 mps 744 mmHg 56%
    12:00 +35°C° 0.2 mm 3 mps 744 mmHg 54%
    13:00 +35°C° 0.2 mm 3 mps 743 mmHg 53%
    14:00 +36°C° 0.2 mm 3 mps 742 mmHg 52%
    15:00 +36°C° 0 mm 3 mps 741 mmHg 54%
    16:00 +35°C° 0 mm 3 mps 740 mmHg 56%
    17:00 +35°C° 0 mm 3 mps 740 mmHg 58%
    18:00 +32°C° 0 mm 2 mps 740 mmHg 65%
    19:00 +30°C° 0 mm 2 mps 740 mmHg 73%
    20:00 +28°C° 0 mm 1 mps 740 mmHg 80%
    21:00 +28°C° 0 mm 1 mps 741 mmHg 82%
    22:00 +27°C° 0 mm 1 mps 741 mmHg 84%
    23:00 +27°C° 0 mm 1 mps 741 mmHg 86%

    Tomorrow, 22 January, Monday

    Time Temperature Precipitation Wind Pressure Humidity
    00:00 +27°C° 0 mm 1 mps 741 mmHg 87%
    01:00 +26°C° 0 mm 1 mps 741 mmHg 88%
    02:00 +26°C° 0 mm 1 mps 741 mmHg 89%
    03:00 +26°C° 0 mm 1 mps 740 mmHg 90%
    04:00 +26°C° 0 mm 1 mps 740 mmHg 90%
    05:00 +25°C° 0 mm 1 mps 740 mmHg 91%
    06:00 +26°C° 0 mm 1 mps 741 mmHg 87%
    07:00 +27°C° 0 mm 1 mps 742 mmHg 82%
    08:00 +29°C° 0 mm 1 mps 743 mmHg 78%
    09:00 +30°C° 0.1 mm 2 mps 743 mmHg 71%
    10:00 +32°C° 0.1 mm 2 mps 743 mmHg 63%
    11:00 +35°C° 0.1 mm 3 mps 743 mmHg 56%
    12:00 +36°C° 0.1 mm 3 mps 742 mmHg 53%
    13:00 +36°C° 0.1 mm 3 mps 741 mmHg 51%
    14:00 +37°C° 0.1 mm 3 mps 740 mmHg 48%
    15:00 +36°C° 0 mm 3 mps 739 mmHg 51%
    16:00 +36°C° 0 mm 3 mps 739 mmHg 53%
    17:00 +36°C° 0 mm 2 mps 738 mmHg 56%
    18:00 +34°C° 0 mm 2 mps 738 mmHg 62%
    19:00 +31°C° 0 mm 2 mps 739 mmHg 69%
    20:00 +29°C° 0 mm 1 mps 739 mmHg 75%
    21:00 +29°C° 0 mm 1 mps 739 mmHg 76%
    22:00 +28°C° 0 mm 1 mps 740 mmHg 78%
    23:00 +28°C° 0 mm 1 mps 741 mmHg 79%

    Day after tomorrow, 23 January, Tuesday

    Time Temperature Precipitation Wind Pressure Humidity
    00:00 +27°C° 0 mm 1 mps 740 mmHg 80%
    01:00 +27°C° 0 mm 1 mps 740 mmHg 81%
    02:00 +27°C° 0 mm 1 mps 740 mmHg 81%
    03:00 +27°C° 0 mm 1 mps 740 mmHg 82%
    04:00 +26°C° 0 mm 1 mps 740 mmHg 83%
    05:00 +26°C° 0 mm 1 mps 740 mmHg 84%
    06:00 +27°C° 0 mm 1 mps 741 mmHg 82%
    07:00 +27°C° 0 mm 1 mps 741 mmHg 81%
    08:00 +28°C° 0 mm 1 mps 742 mmHg 79%
    09:00 +30°C° 0.1 mm 2 mps 742 mmHg 73%
    10:00 +32°C° 0.1 mm 2 mps 743 mmHg 67%
    11:00 +34°C° 0.1 mm 3 mps 743 mmHg 61%
    12:00 +35°C° 0.2 mm 3 mps 742 mmHg 58%
    13:00 +35°C° 0.2 mm 3 mps 741 mmHg 55%
    14:00 +36°C° 0.2 mm 3 mps 741 mmHg 52%
    15:00 +35°C° 0 mm 3 mps 740 mmHg 54%
    16:00 +35°C° 0 mm 3 mps 739 mmHg 55%
    17:00 +35°C° 0 mm 3 mps 739 mmHg 57%
    18:00 +32°C° 0 mm 2 mps 739 mmHg 64%
    19:00 +31°C° 0 mm 2 mps 739 mmHg 70%
    20:00 +29°C° 0 mm 2 mps 740 mmHg 77%
    21:00 +28°C° 0 mm 2 mps 740 mmHg 77%
    22:00 +28°C° 0 mm 2 mps 741 mmHg 78%
    23:00 +27°C° 0 mm 2 mps 741 mmHg 79%

    24 January, Wednesday

    Time Temperature Precipitation Wind Pressure Humidity
    00:00 +27°C° 0 mm 2 mps 741 mmHg 79%
    01:00 +27°C° 0 mm 2 mps 741 mmHg 79%
    02:00 +26°C° 0 mm 2 mps 740 mmHg 80%
    03:00 +26°C° 0.1 mm 2 mps 741 mmHg 82%
    04:00 +26°C° 0.1 mm 1 mps 741 mmHg 84%
    05:00 +25°C° 0.1 mm 1 mps 741 mmHg 87%
    06:00 +26°C° 0 mm 2 mps 742 mmHg 85%
    07:00 +27°C° 0 mm 2 mps 743 mmHg 84%
    08:00 +27°C° 0 mm 2 mps 743 mmHg 82%
    09:00 +29°C° 0 mm 3 mps 743 mmHg 76%
    10:00 +31°C° 0 mm 3 mps 744 mmHg 69%
    11:00 +33°C° 0 mm 3 mps 744 mmHg 63%
    12:00 +34°C° 0 mm 3 mps 743 mmHg 59%
    13:00 +35°C° 0 mm 3 mps 742 mmHg 56%
    14:00 +36°C° 0 mm 3 mps 741 mmHg 53%
    15:00 +35°C° 0 mm 3 mps 741 mmHg 55%
    16:00 +35°C° 0 mm 3 mps 740 mmHg 57%
    17:00 +35°C° 0 mm 2 mps 739 mmHg 59%
    18:00 +32°C° 0 mm 2 mps 740 mmHg 65%
    19:00 +31°C° 0 mm 2 mps 740 mmHg 72%
    20:00 +29°C° 0 mm 1 mps 740 mmHg 78%
    21:00 +29°C° 0 mm 1 mps 741 mmHg 80%
    22:00 +28°C° 0 mm 1 mps 741 mmHg 81%
    23:00 +28°C° 0 mm 1 mps 742 mmHg 82%

    25 January, Thursday

    Time Temperature Precipitation Wind Pressure Humidity
    00:00 +27°C° 0 mm 1 mps 742 mmHg 83%
    01:00 +27°C° 0 mm 1 mps 741 mmHg 84%
    02:00 +27°C° 0 mm 1 mps 741 mmHg 86%
    03:00 +27°C° 0 mm 1 mps 741 mmHg 87%
    04:00 +26°C° 0 mm 1 mps 741 mmHg 88%
    05:00 +26°C° 0 mm 1 mps 741 mmHg 89%
    06:00 +27°C° 0 mm 1 mps 742 mmHg 85%
    07:00 +27°C° 0 mm 1 mps 743 mmHg 82%
    08:00 +28°C° 0 mm 1 mps 744 mmHg 79%
    09:00 +30°C° 0 mm 2 mps 744 mmHg 72%
    10:00 +31°C° 0 mm 2 mps 744 mmHg 65%
    11:00 +34°C° 0 mm 3 mps 744 mmHg 57%
    12:00 +35°C° 0 mm 3 mps 743 mmHg 54%
    13:00 +36°C° 0 mm 3 mps 742 mmHg 50%
    14:00 +36°C° 0 mm 3 mps 741 mmHg 47%
    15:00 +36°C° 0 mm 2 mps 741 mmHg 49%
    16:00 +36°C° 0 mm 2 mps 740 mmHg 51%
    17:00 +35°C° 0 mm 2 mps 739 mmHg 53%
    18:00 +32°C° 0 mm 2 mps 740 mmHg 60%
    19:00 +31°C° 0 mm 1 mps 740 mmHg 66%
    20:00 +29°C° 0 mm 1 mps 740 mmHg 73%
    21:00 +28°C° 0 mm 1 mps 741 mmHg 74%
    22:00 +28°C° 0 mm 1 mps 741 mmHg 76%
    23:00 +27°C° 0 mm 1 mps 741 mmHg 78%

    26 January, Friday

    Time Temperature Precipitation Wind Pressure Humidity
    00:00 +27°C° 0 mm 1 mps 741 mmHg 79%
    01:00 +27°C° 0 mm 1 mps 741 mmHg 80%
    02:00 +26°C° 0 mm 1 mps 740 mmHg 81%
    03:00 +26°C° 0.7 mm 1 mps 740 mmHg 86%
    04:00 +25°C° 0.7 mm 1 mps 740 mmHg 90%
    05:00 +25°C° 0.7 mm 1 mps 740 mmHg 94%
    06:00 +26°C° 0.1 mm 1 mps 741 mmHg 92%
    07:00 +27°C° 0.1 mm 2 mps 742 mmHg 89%
    08:00 +27°C° 0.1 mm 2 mps 742 mmHg 87%
    09:00 +29°C° 0 mm 2 mps 742 mmHg 77%
    10:00 +32°C° 0 mm 2 mps 743 mmHg 68%
    11:00 +35°C° 0 mm 3 mps 743 mmHg 58%
    12:00 +35°C° 0.6 mm 3 mps 742 mmHg 58%
    13:00 +35°C° 0.6 mm 3 mps 741 mmHg 59%
    14:00 +36°C° 0.6 mm 3 mps 740 mmHg 59%
    15:00 +35°C° 0.1 mm 2 mps 739 mmHg 59%
    16:00 +35°C° 0.1 mm 2 mps 739 mmHg 60%
    17:00 +35°C° 0.1 mm 2 mps 738 mmHg 60%
    18:00 +32°C° 0 mm 2 mps 738 mmHg 65%
    19:00 +31°C° 0 mm 2 mps 738 mmHg 71%
    20:00 +29°C° 0 mm 1 mps 739 mmHg 76%
    21:00 +29°C° 0 mm 1 mps 739 mmHg 78%
    22:00 +28°C° 0 mm 1 mps 740 mmHg 79%
    23:00 +28°C° 0 mm 1 mps 740 mmHg 81%
    Show more